TY-1
1 41844U 16066D   22132.71526457  .00011819  00000-0  41461-3 0  9996
2 41844  97.3915 144.9002 0015110  60.8369  28.9119 15.29479459306146
CAS-2T
1 41847U 16066G   22132.17451306  .00000429  00000-0  75353-4 0  9992
2 41847  98.5529 196.8758 0363226 318.5451  38.8692 14.38535337289138
EO-88
1 42017U 17008BX  22132.16709589  .00015407  00000-0  47964-3 0  9995
2 42017  97.2714 198.8328 0005170  35.9417 324.2173 15.33363245291512
CAS-4B
1 42759U 17034B   22132.81204861  .00002915  00000-0  18140-3 0  9996
2 42759  43.0163 169.1157 0007738  57.4456 279.2476 15.11622649270959
CAS-4A
1 42761U 17034D   22132.81921137  .00002838  00000-0  17656-3 0  9996
2 42761  43.0166 167.8898 0008216  59.3284 109.6569 15.11713423270965
NIUSat
1 42766U 17036B   22132.00367859  .00008145  00000-0  32172-3 0  9996
2 42766  97.2058 171.1362 0015846  97.2737 263.0303 15.25644606271240
Aalto 1
1 42775U 17036L   22132.09117681  .00006137  00000-0  24752-3 0  9995
2 42775  97.2015 171.2011 0014640  96.0518 264.2390 15.25061208271239
URSA MAIOR
1 42776U 17036M   22132.01906565  .00006811  00000-0  27040-3 0  9997
2 42776  97.2029 171.8248 0014333  95.5794 264.7080 15.25554939271253
Max Valier Sat
1 42778U 17036P   22132.60262500  .00009145  00000-0  35402-3 0  9992
2 42778  97.2095 174.9433 0013150  95.1595 265.1145 15.26317166271436
Pegasus
1 42784U 17036V   22132.10854049  .00009730  00000-0  35773-3 0  9990
2 42784  97.2031 175.2305 0012332  98.1221 262.1418 15.28019198271464
NUDATSat
1 42787U 17036Y   22132.79004613  .00017650  00000-0  56882-3 0  9996
2 42787  97.2064 179.7293 0010967  87.1015 273.1476 15.32179823271631
SUCHAI 1
1 42788U 17036Z   22132.60229601  .00014550  00000-0  50858-3 0  9996
2 42788  97.2039 177.2455 0011628  93.3848 266.8723 15.29585286271707
SKCUBE
1 42789U 17036AA  22131.33904255  .00010252  00000-0  36675-3 0  9997
2 42789  97.2038 175.5287 0011716  97.8518 262.4053 15.28911154271403
VZLUSAT 1
1 42790U 17036AB  22131.55378285  .00015509  00000-0  50264-3 0  9991
2 42790  97.2066 178.5012 0010452  92.3210 267.9229 15.32031965271593
VENTA 1
1 42791U 17036AC  22131.35887207  .00008681  00000-0  31551-3 0  9990
2 42791  97.2038 175.4646 0011474  98.1735 262.0807 15.28441105271395
Robusta 1B
1 42792U 17036AD  22132.09152169  .00010973  00000-0  38669-3 0  9999
2 42792  97.2036 176.7935 0011245  95.7130 264.5393 15.29389978271563
D-SAT
1 42794U 17036AF  22132.01033813  .00001109  00000-0  98760-4 0  9997
2 42794  97.4524 139.3501 0122793 206.5006 152.9902 14.92444926266078
TechnoSat
1 42829U 17042E   22132.60134042  .00001265  00000-0  13048-3 0  9992
2 42829  97.4256 348.8263 0015337 123.7553 236.5130 14.91758287262742
QIKCOM-1
1 42983U 98067NF  22132.12412250  .00102053  00000-0  35292-3 0  9998
2 42983  51.6329  13.5484 0004235 162.2913 197.8241 15.88694559259140
AO-91
1 43017U 17073E   22132.70512001  .00004046  00000-0  30984-3 0  9990
2 43017  97.6794  28.3541 0248196 305.1520  52.6663 14.81160167241828
PICSAT
1 43132U 18004X   22132.15304060  .00014513  00000-0  49589-3 0  9997
2 43132  97.3730 208.7523 0009324 125.3724 234.8390 15.30352688240852
AO-92
1 43137U 18004AC  22131.44758568  .00007924  00000-0  28723-3 0  9994
2 43137  97.3698 206.9542 0009334 129.4464 230.7603 15.28589308240690
TianYi 2
1 43155U 18008A   22132.70434922  .00006125  00000-0  33256-3 0  9992
2 43155  97.3547 192.2577 0014694 267.8200 188.6892 15.14793313237862
Zhou Enlai
1 43156U 18008B   22132.71417543  .00006358  00000-0  34783-3 0  9998
2 43156  97.3597 192.1328 0012057 268.3307 188.0106 15.14536992237798
TianYi 6
1 43158U 18008D   22132.67785053  .00005595  00000-0  31470-3 0  9991
2 43158  97.3550 190.1482 0011307 269.6749 208.6138 15.13603244237696
S-Net D
1 43186U 18014G   22132.62150830  .00002453  00000-0  21375-3 0  9996
2 43186  97.6611  39.0448 0012517  63.8136 296.4372 14.97756145233555
S-Net B
1 43187U 18014H   22132.68841029  .00002446  00000-0  21311-3 0  9992
2 43187  97.6607  39.0636 0012537  63.5156 296.7351 14.97755116233569
S-Net A
1 43188U 18014J   22132.62186292  .00002441  00000-0  21274-3 0  9994
2 43188  97.6612  39.0596 0012542  63.7502 296.5007 14.97754011233552
S-Net C
1 43189U 18014K   22132.62251852  .00002474  00000-0  21553-3 0  9996
2 43189  97.6607  38.9883 0012564  63.5347 296.7162 14.97752807232108
FMN 1
1 43192U 18015A   22132.69988731  .00025087  00000-0  70789-3 0  9991
2 43192  97.5301 276.9036 0012589 158.4994 297.7866 15.36302586237954
Shaonian Xing
1 43199U 18015H   22132.67977034  .00015544  00000-0  48815-3 0  9992
2 43199  97.5073 272.3989 0014634 165.9330 252.5845 15.32997278237965
SurfSat
1 43614U 18070B   22132.70863312  .00037551  00000-0  61376-3 0  9991
2 43614  93.0288  83.5976 0013725 141.4403 218.7841 15.52312998205512
CP-7 DAVE
1 43615U 18070C   22132.37013030  .00031580  00000-0  53416-3 0  9991
2 43615  93.0305  83.3332 0013761 144.2596 215.9589 15.51373990205438
ELFIN-B
1 43616U 18070D   22132.62826309  .00069259  00000-0  80398-3 0  9994
2 43616  93.0202  84.4063 0013868 132.8143 227.4292 15.61429424205756
ELFIN-A
1 43617U 18070E   22132.61225279  .00072950  00000-0  79570-3 0  9995
2 43617  93.0275  85.6687 0013567 128.4287 231.8201 15.63032693205791
CubeBel-1
1 43666U 18083E   22132.71968608  .00008591  00000-0  37250-3 0  9993
2 43666  97.4237 161.8204 0015402  99.1505  10.3866 15.22501581196046
Changshagaoxin
1 43669U 18083H   22132.79665683  .00007911  00000-0  35920-3 0  9998
2 43669  97.4180 157.9829 0011959  96.4142  18.0376 15.20990359195880
Ten-Koh
1 43677U 18084G   22132.64399880  .00001369  00000-0  14405-3 0  9991
2 43677  97.9585 262.3829 0016468  33.9149 326.3118 14.90991461192345
PO-101
1 43678U 18084H   22132.70708050  .00000428  00000-0  47871-4 0  9991
2 43678  97.9639 265.5662 0010946  48.5458 311.6701 14.92095586192526
IRVINE 01
1 43693U 18088D   22131.99543430  .00027068  00000-0  79117-3 0  9997
2 43693  85.0297 335.5242 0011284 240.1868 119.8260 15.35088201194629
QO-100
1 43700U 18090A   22132.70489861  .00000155  00000-0  00000+0 0  9995
2 43700   0.0507  89.9547 0002521 349.3838  70.6659  1.00271815 12919
Reaktor Hello World
1 43743U 18096AA  22131.46749358  .00010174  00000-0  32096-3 0  9996
2 43743  97.3532 211.5146 0015802 186.4762 173.6278 15.32936370192298
MinXSS-2
1 43758U 18099A   22132.16009140  .00002183  00000-0  19360-3 0  9991
2 43758  97.6265 200.9545 0015881  32.7611 327.4593 14.97127080187673
AO-95
1 43770U 18099N   22132.14570413  .00002703  00000-0  24406-3 0  9994
2 43770  97.6233 199.4387 0015265  43.6834 316.5593 14.96234905187585
RANGE-B
1 43772U 18099Q   22132.15472518  .00002855  00000-0  25387-3 0  9991
2 43772  97.6343 201.0383 0014432  30.7957 329.4108 14.96804869187603
RANGE-A
1 43773U 18099R   22132.66052573  .00002175  00000-0  19924-3 0  9998
2 43773  97.6154 198.8778 0013827  29.8583 330.3424 14.95883067187648
MOVE-II
1 43780U 18099Y   22132.13498920  .00004522  00000-0  39335-3 0  9994
2 43780  97.6262 200.4643 0013686  41.1985 319.0268 14.97380524187623
SNUSat 2
1 43782U 18099AA  22132.13010819  .00002688  00000-0  24183-3 0  9999
2 43782  97.6228 199.8747 0012899  30.9870 329.2110 14.96411876187608
SnugLite
1 43784U 18099AC  22132.17264697  .00002202  00000-0  19788-3 0  9997
2 43784  97.6186 199.5647 0015262  34.9738 325.2483 14.96602456187631
ITASat 1
1 43786U 18099AE  22132.14283085  .00002503  00000-0  22539-3 0  9990
2 43786  97.6255 200.3340 0015691  36.3401 323.8883 14.96408322187623
EAGLET 1
1 43790U 18099AJ  22132.17636198  .00001373  00000-0  12533-3 0  9992
2 43790  97.6242 200.8921 0013838  38.5406 321.6801 14.96613219187364
ESEO
1 43792U 18099AL  22132.16473815  .00000395  00000-0  40121-4 0  9996
2 43792  97.6200 200.1505 0014014  36.4401 323.7772 14.96113161187406
CSIM
1 43793U 18099AM  22132.19171771  .00004052  00000-0  34707-3 0  9992
2 43793  97.6259 201.3688 0012467  32.7165 327.4827 14.98051752187458
Astrocast 0.1
1 43798U 18099AS  22132.18337315  .00003652  00000-0  31927-3 0  9990
2 43798  97.6249 201.3066 0011882  16.7311 343.4301 14.97316126187685
JO-97
1 43803U 18099AX  22132.17207938  .00002266  00000-0  20226-3 0  9993
2 43803  97.6210 200.1096 0015252  33.8725 326.3468 14.96850379187646
Suomi 100
1 43804U 18099AY  22132.18770140  .00002556  00000-0  22799-3 0  9994
2 43804  97.6202 200.0535 0015269  35.1936 325.0292 14.96766218187652
Al Farabi 2
1 43805U 18099AZ  22132.78926099  .00003006  00000-0  26387-3 0  9995
2 43805  97.6220 201.0847 0015145  31.7334 328.4792 14.97265272187766
CHOMPTT
1 43855U 18104G   22132.14523846  .00008815  00000-0  33091-3 0  9993
2 43855  85.0355  75.3418 0016752  23.1663 337.0333 15.26906365189185
ISAT
1 43879U 18111D   22131.78967181  .00002295  00000-0  20029-3 0  9993
2 43879  97.6675  38.0645 0013993  83.1443 277.1370 14.97732734184183
UWE-4
1 43880U 18111E   22132.73223879  .00002780  00000-0  24054-3 0  9991
2 43880  97.6701  39.6674 0013160  81.7707 278.5007 14.97912132182358
Sparrow
1 43881U 18111F   22132.61933816  .00003757  00000-0  32211-3 0  9997
2 43881  97.6719  39.7684 0014211  81.1684 279.1147 14.98042875182346
Lume 1
1 43908U 18111AJ  22132.67124509  .00009466  00000-0  33067-3 0  9997
2 43908  97.1967  21.6133 0018233 195.4158 164.6530 15.29618339187920
FO-99
1 43937U 19003F   22132.33500596  .00011012  00000-0  38254-3 0  9990
2 43937  97.1344 167.1072 0018848 282.9499  76.9637 15.29745163184455
